Weather History for KMTN - November, 2012

Change the Weather History Date:

Friday, November 30, 2012

  Actual Average (KDMH) Record (KDMH)
Temperature  
Mean Temperature 39 °F 45 °F  
Max Temperature 50 °F 52 °F - ()
Min Temperature 28 °F 38 °F - ()
Degree Days  
Heating Degree Days 26 20  
Month to date heating degree days 442  
Since 1 July heating degree days 651  
Cooling Degree Days 0 0  
Month to date cooling degree days 1  
Year to date cooling degree days 1665  
Moisture  
Dew Point 31 °F    
Average Humidity 82    
Maximum Humidity 100    
Minimum Humidity 43    
Precipitation  
Precipitation 0.00 in 0.12 in - ()
Month to date precipitation 2.97  
Year to date precipitation 37.48  
Sea Level Pressure  
Sea Level Pressure 30.36 in    
Wind  
Wind Speed 0 mph (NE)    
Max Wind Speed 5 mph    
Max Gust Speed -    
Visibility 10 miles    
Events      
T = Trace of Precipitation, MM = Missing Value Source: NWS Daily Summary

Daily Weather History Graph

Daily Weather History Graph

Search for Another Location

Airport or City:

Trip Planner

Search our weather history database for the weather conditions in past years. The results will help you decide how hot, cold, wet, or windy it might be!

Date:

Astronomy

Nov. 30, 2012 Rise Set
Actual Time 7:05 AM EST 4:42 PM EST
Civil Twilight 6:36 AM EST 5:12 PM EST
Nautical Twilight 6:02 AM EST 5:45 PM EST
Astronomical Twilight 5:30 AM EST 6:18 PM EST
Moon 6:35 PM EST (11/30) 8:36 AM EST (11/30)
Length of Visible Light 10h 36m
Length of Day
9h 37m
Waning Gibbous, 96% of the Moon is Illuminated
Nov 30
Waning Gibbous
Dec 6
Last Quarter
Dec 13
New
Dec 20
First Quarter
Dec 28
Full

Hourly Weather History & Observations

Time (EST) Temp. Windchill Dew Point Humidity Pressure Visibility Wind Dir Wind Speed Gust Speed Precip Events Conditions
12:15 AM 32.0 °F - 28.4 °F 87% 30.36 in 10.0 mi Calm Calm - N/A   Clear
12:36 AM 32.0 °F - 28.4 °F 87% 30.36 in 10.0 mi Calm Calm - N/A   Clear
12:57 AM 32.0 °F - 30.2 °F 93% 30.36 in 10.0 mi Calm Calm - N/A   Clear
1:18 AM 32.0 °F - 30.2 °F 93% 30.36 in 10.0 mi Calm Calm - N/A   Clear
2:03 AM 32.0 °F - 30.2 °F 93% 30.36 in 7.0 mi Calm Calm - N/A   Clear
2:24 AM 32.0 °F - 30.2 °F 93% 30.36 in 10.0 mi Calm Calm - N/A   Clear
2:45 AM 30.2 °F - 28.4 °F 93% 30.36 in 7.0 mi Calm Calm - N/A   Clear
3:06 AM 30.2 °F - 28.4 °F 93% 30.36 in 10.0 mi Calm Calm - N/A   Clear
3:27 AM 30.2 °F - 28.4 °F 93% 30.36 in 10.0 mi Calm Calm - N/A   Clear
3:48 AM 30.2 °F - 28.4 °F 93% 30.35 in 10.0 mi Calm Calm - N/A   Clear
4:09 AM 30.2 °F - 28.4 °F 93% 30.35 in 7.0 mi Calm Calm - N/A   Clear
4:30 AM 30.2 °F - 28.4 °F 93% 30.35 in 10.0 mi Calm Calm - N/A   Clear
4:51 AM 28.4 °F 24.6 °F 26.6 °F 93% 30.36 in 7.0 mi WNW 3.5 mph - N/A   Clear
5:12 AM 30.2 °F - 28.4 °F 93% 30.35 in 10.0 mi Calm Calm - N/A   Clear
5:27 AM 28.4 °F - 28.4 °F 100% 30.35 in 10.0 mi Calm Calm - N/A   Clear
5:50 AM 28.4 °F - 26.6 °F 93% 30.36 in 7.0 mi Calm Calm - N/A   Mostly Cloudy
6:55 AM 28.4 °F - 26.6 °F 93% 30.38 in 7.0 mi Calm Calm - N/A   Scattered Clouds
7:45 AM 28.4 °F - 26.6 °F 93% 30.39 in 10.0 mi Calm Calm - N/A   Partly Cloudy
8:45 AM 35.6 °F 32.8 °F 30.2 °F 81% 30.40 in 10.0 mi North 3.5 mph - N/A   Partly Cloudy
9:45 AM 41.0 °F - 33.8 °F 76% 30.40 in 10.0 mi Calm Calm - N/A   Partly Cloudy
10:45 AM 44.6 °F - 37.4 °F 76% 30.40 in 10.0 mi Calm Calm - N/A   Partly Cloudy
11:45 AM 46.4 °F 45.2 °F 37.4 °F 71% 30.38 in 10.0 mi ESE 3.5 mph - N/A   Partly Cloudy
12:45 PM 48.2 °F - 32.0 °F 54% 30.36 in 10.0 mi ENE 3.5 mph - N/A   Scattered Clouds
1:45 PM 50.0 °F - 28.4 °F 43% 30.35 in 10.0 mi NE 3.5 mph - N/A   Mostly Cloudy
2:45 PM 50.0 °F - 30.2 °F 47% 30.34 in 10.0 mi ENE 3.5 mph - N/A   Mostly Cloudy
3:45 PM 50.0 °F - 32.0 °F 50% 30.34 in 10.0 mi East 4.6 mph - N/A   Mostly Cloudy
4:50 PM 46.4 °F - 32.0 °F 57% 30.34 in 10.0 mi Calm Calm - N/A   Scattered Clouds
5:45 PM 41.0 °F - 32.0 °F 70% 30.34 in 10.0 mi Calm Calm - N/A   Scattered Clouds
7:50 PM 41.0 °F - 32.0 °F 70% 30.37 in 10.0 mi Calm Calm - N/A   Scattered Clouds
8:50 PM 39.2 °F - 32.0 °F 75% 30.37 in 10.0 mi Calm Calm - N/A   Partly Cloudy
10:12 PM 37.4 °F - 33.8 °F 87% 30.38 in 10.0 mi Calm Calm - N/A   Clear
10:33 PM 35.6 °F - 32.0 °F 87% 30.38 in 10.0 mi Calm Calm - N/A   Clear
10:57 PM 37.4 °F - 33.8 °F 87% 30.38 in 10.0 mi Calm Calm - N/A   Clear
11:18 PM 35.6 °F - 33.8 °F 93% 30.38 in 10.0 mi Calm Calm - N/A   Clear
11:39 PM 35.6 °F - 33.8 °F 93% 30.38 in 10.0 mi Calm Calm - N/A   Clear